Denver, CO

1:40 PM MDT on July 23, 2017 (GMT -0600)
Denver International

Weather History for KDEN - April, 2013

Change the Weather History Date:

Friday, April 26, 2013

  Actual Average Record
Temperature  
Mean Temperature 52 °F 50 °F  
Max Temperature 66 °F 64 °F 84 °F (1981)
Min Temperature 38 °F 36 °F 18 °F (1924)
Degree Days  
Heating Degree Days 13 15  
Month to date heating degree days 663 472  
Since 1 July heating degree days 5775 5674  
Cooling Degree Days 0 0  
Month to date cooling degree days 0 0  
Year to date cooling degree days 0 0  
Moisture  
Dew Point 21 °F    
Average Humidity 36    
Maximum Humidity 59    
Minimum Humidity 12    
Precipitation  
Precipitation 0.00 in 0.07 in 3.04 in (1972)
Month to date precipitation 1.87 1.43  
Year to date precipitation 4.42 3.13  
Snow  
Snow 0.00 in - - ()
Month to date snowfall 20.4  
Since 1 July snowfall 75  
Snow Depth 0.00 in    
Sea Level Pressure  
Sea Level Pressure 30.05 in    
Wind  
Wind Speed 9 mph (NW)    
Max Wind Speed 17 mph    
Max Gust Speed 24 mph    
Visibility 10 miles    
Events      
T = Trace of Precipitation, MM = Missing Value Source: NWS Daily Summary

Daily Weather History Graph

Daily Weather History Graph

Search for Another Location

Airport or City:

Trip Planner

Search our weather history database for the weather conditions in past years. The results will help you decide how hot, cold, wet, or windy it might be!

Date:

Astronomy

Apr. 26, 2013 Rise Set
Actual Time 6:05 AM MDT 7:48 PM MDT
Civil Twilight 5:36 AM MDT 8:17 PM MDT
Nautical Twilight 5:01 AM MDT 8:52 PM MDT
Astronomical Twilight 4:24 AM MDT 9:29 PM MDT
Moon 9:13 PM MDT (4/26) 6:34 AM MDT (4/26)
Length of Visible Light 14h 41m
Length of Day
13h 43m
Full, 99% of the Moon is Illuminated
Apr 26
Full
May 2
Last Quarter
May 9
New
May 17
First Quarter
May 24
Full

Hourly Weather History & Observations

Time (MDT) Temp. Windchill Dew Point Humidity Pressure Visibility Wind Dir Wind Speed Gust Speed Precip Events Conditions
12:53 AM 46.4 °F 42.9 °F 24.8 °F 43% 30.04 in 10.0 mi West 6.9 mph - N/A   Mostly Cloudy
1:53 AM 44.1 °F 39.5 °F 24.1 °F 45% 29.90 in 10.0 mi SW 8.1 mph - N/A   Partly Cloudy
2:53 AM 41.0 °F 34.7 °F 25.0 °F 53% 29.91 in 10.0 mi SW 10.4 mph - N/A   Scattered Clouds
3:53 AM 39.9 °F 34.5 °F 24.1 °F 53% 29.94 in 10.0 mi West 8.1 mph - N/A   Scattered Clouds
4:53 AM 39.0 °F 34.0 °F 24.1 °F 55% 29.96 in 10.0 mi West 6.9 mph - N/A   Partly Cloudy
5:53 AM 37.9 °F 31.5 °F 24.1 °F 57% 29.98 in 10.0 mi West 9.2 mph - N/A   Scattered Clouds
6:53 AM 41.0 °F 37.1 °F 25.0 °F 53% 30.02 in 10.0 mi West 5.8 mph - N/A   Scattered Clouds
7:53 AM 45.0 °F 41.2 °F 26.1 °F 48% 30.06 in 10.0 mi West 6.9 mph - N/A   Partly Cloudy
8:53 AM 52.0 °F - 23.0 °F 32% 30.07 in 10.0 mi NW 8.1 mph - N/A   Partly Cloudy
9:53 AM 57.0 °F - 19.9 °F 24% 30.07 in 10.0 mi North 4.6 mph - N/A   Scattered Clouds
10:53 AM 61.0 °F - 19.0 °F 20% 30.08 in 10.0 mi North 10.4 mph - N/A   Partly Cloudy
11:53 AM 61.0 °F - 12.0 °F 15% 30.09 in 10.0 mi NE 9.2 mph 17.3 mph N/A   Partly Cloudy
12:53 PM 64.0 °F - 18.0 °F 17% 30.06 in 10.0 mi North 12.7 mph 18.4 mph N/A   Partly Cloudy
1:53 PM 64.0 °F - 17.1 °F 16% 30.07 in 10.0 mi ENE 13.8 mph 18.4 mph N/A   Partly Cloudy
2:53 PM 66.0 °F - 17.1 °F 15% 30.07 in 10.0 mi NE 12.7 mph 18.4 mph N/A   Partly Cloudy
3:53 PM 64.9 °F - 12.9 °F 13% 30.06 in 10.0 mi North 6.9 mph - N/A   Partly Cloudy
4:53 PM 66.0 °F - 12.9 °F 13% 30.06 in 10.0 mi North 5.8 mph 16.1 mph N/A   Partly Cloudy
5:53 PM 64.9 °F - 12.0 °F 13% 30.08 in 10.0 mi NNE 6.9 mph - N/A   Partly Cloudy
6:53 PM 61.0 °F - 16.0 °F 17% 30.09 in 10.0 mi East 6.9 mph - N/A   Partly Cloudy
7:53 PM 54.0 °F - 23.0 °F 30% 30.11 in 10.0 mi ESE 6.9 mph - N/A   Partly Cloudy
8:53 PM 46.9 °F - 26.1 °F 44% 30.13 in 10.0 mi SSE 11.5 mph - N/A   Scattered Clouds
9:53 PM 46.0 °F 40.6 °F 26.1 °F 46% 30.13 in 10.0 mi South 11.5 mph - N/A   Scattered Clouds
10:53 PM 46.0 °F 39.9 °F 25.0 °F 44% 30.12 in 10.0 mi South 13.8 mph - N/A   Scattered Clouds
11:53 PM 44.1 °F 39.5 °F 24.1 °F 45% 30.12 in 10.0 mi SW 8.1 mph - N/A   Clear